Regional Weather Roundup
Issued by NWS Little Rock, AR

Home | Current Version | Previous Version | Text Only | Print | Product List | Glossary Off
Versions: 1 2 3 4 5 6 7 8 9 10 11 12 13 14 15 16 17 18 19 20 21 22 23 24 25 26 27 28 29

000
ASUS44 KLZK 301005
RWRLZK

WEATHER ROUNDUP FOR ARKANSAS
NATIONAL WEATHER SERVICE LITTLE ROCK AR
500 AM CDT THU OCT 30 2014

NOTE: "FAIR" INDICATES FEW OR NO CLOUDS BELOW 12,000 FEET WITH NO
SIGNIFICANT WEATHER AND/OR OBSTRUCTIONS TO VISIBILITY.

ARZ001-003-010-029-301100-
NORTHWEST ARKANSAS

CITY           SKY/WX    TMP DP  RH WIND       PRES   REMARKS
FAYETTEVILLE   CLEAR     37  37 100 CALM      30.14F
FORT SMITH     CLEAR     45  41  86 CALM      30.14S
HARRISON       CLEAR     40  38  93 SE5       30.14S
BENTONVILLE    CLEAR     43  36  75 CALM      30.12S
ROGERS         CLEAR     45  39  79 SE3       30.13F
SILOAM SPGS    CLEAR     39  32  75 CALM      30.14S
HIGHFILL       CLEAR     42  38  85 CALM      30.12F
$$

ARZ004-005-016-301100-
NORTH CENTRAL ARKANSAS

CITY           SKY/WX    TMP DP  RH WIND       PRES   REMARKS
BATESVILLE     CLEAR     41  37  87 CALM      30.16S
FLIPPIN        CLEAR     37  30  75 CALM      30.15S
MTN HOME       CLEAR     40  38  93 CALM      30.14S
$$

ARZ040-041-301100-
WEST CENTRAL ARKANSAS

CITY           SKY/WX    TMP DP  RH WIND       PRES   REMARKS
MENA             N/A     43  41  93 CALM        N/A
MOUNT IDA      CLEAR     41  39  93 CALM      30.13F
$$

ARZ009-017-025-026-028-301100-
NORTHEAST ARKANSAS

CITY           SKY/WX    TMP DP  RH WIND       PRES   REMARKS
CORNING        FAIR      39  37  93 CALM      30.17S
JONESBORO      CLEAR     45  37  73 NE6       30.16S
NEWPORT        CLEAR     42  39  89 N5        30.17S
WALNUT RIDGE   CLEAR     43  36  75 NE5       30.15F
BLYTHEVILLE    CLEAR     42  39  89 N3        30.17R
$$

ARZ022-023-033-042-044-301100-
CENTRAL ARKANSAS

CITY           SKY/WX    TMP DP  RH WIND       PRES   REMARKS
LITTLE ROCK    CLEAR     47  43  86 CALM      30.15S
N LITTLE ROCK    N/A     52  49  90 NW7       30.15S
JACKSONVILLE   CLEAR     42  40  92 CALM      30.15S
SEARCY         CLEAR     43  42  97 CALM      30.17S
HOT SPRINGS    FOG       47  46  97 CALM      30.16S VSB 1/4
RUSSELLVILLE   CLEAR     42  41  96 CALM      30.15F
$$

ARZ036-301100-
EAST ARKANSAS

CITY           SKY/WX    TMP DP  RH WIND       PRES   REMARKS
WEST MEMPHIS   CLEAR     45  45 100 CALM      30.14R
$$

ARZ050-053-066-070-073-301100-
SOUTHWEST ARKANSAS

CITY           SKY/WX    TMP DP  RH WIND       PRES   REMARKS
ARKADELPHIA    CLOUDY    43  43 100 CALM      30.17R FOG
CAMDEN         FOG       41  39  93 CALM      30.16R VSB 1/2
TEXARKANA      CLEAR     47  45  93 NE3       30.15S
EL DORADO      CLEAR     42  41  96 CALM      30.15R
DE QUEEN       CLEAR     42  41  96 E3        30.14F FOG
$$

ARZ056-057-069-301100-
SOUTHEAST ARKANSAS

CITY           SKY/WX    TMP DP  RH WIND       PRES   REMARKS
PINE BLUFF     CLEAR     45  43  93 CALM      30.15R
STUTTGART      CLEAR     46  45  93 N8        30.15R
MONTICELLO     CLEAR     46  44  93 CALM      30.14R

$$





USA.gov is the U.S. government's official web portal to all federal, state and local government web resources and services.